Regional Weather Roundup
Issued by NWS Cleveland, OH

Home | Current Version | Previous Version | Graphics & Text | Print | Product List | Glossary On
Versions: 1 2 3 4 5 6 7 8 9 10 11 12 13 14 15 16 17 18 19 20 21 22 23 24 25 26 27 28 29 30 31 32 33 34 35 36 37 38 39 40 41 42 43 44 45 46 47 48 49 50
000
ASUS41 KCLE 302202
RWRCLE
OHIO REGIONAL WEATHER ROUNDUP
NATIONAL WEATHER SERVICE CLEVELAND, OH
500 PM EST FRI JAN 30 2015

NOTE: "FAIR" INDICATES FEW OR NO CLOUDS BELOW 12,000 FEET WITH NO
SIGNIFICANT WEATHER AND/OR OBSTRUCTIONS TO VISIBILITY.

OHZ001>008-015>018-024>027-034-035-043-044-302300-
   NORTHWEST OHIO

CITY           SKY/WX    TMP DP  RH WIND       PRES   REMARKS
DEFIANCE       CLEAR     26  11  52 W7        30.45S WCI  18
FINDLAY        CLEAR     23   9  55 NW7       30.43S WCI  15
TOLEDO EXPRESS CLEAR     22   8  55 NW6       30.44S WCI  14
TOLEDO EXEC    CLEAR     23   6  48 NW8       30.45S WCI  14
LIMA           MOCLDY    24  11  57 NW10      30.42S WCI  14
$$

OHZ009>014-019>023-028>033-038-089-302300-
   NORTHEAST OHIO

CITY           SKY/WX    TMP DP  RH WIND       PRES   REMARKS
CLE-HOPKINS    MOCLDY    16   5  62 N12       30.45R WCI   3
CLE-LAKEFRONT  MOCLDY    17   8  67 NW16      30.44R WCI   2
CUY CO. ARPT   CLOUDY    18   9  68 NW14G23   30.41R WCI   4
LORAIN-ELYRIA  CLEAR     16   3  56 N14       30.44R WCI   2
ASHTABULA      LGT SNOW  15  10  80 NW12      30.37R WCI   2
AKRON-CANTON   CLOUDY    16   6  65 NW16      30.37S WCI   1
WOOSTER        PTCLDY    15   4  61 NW12      30.40S WCI   2
MANSFIELD      PTCLDY    15   5  64 NW8       30.39S WCI   4
YOUNGSTOWN     LGT SNOW  14   9  80 NW9       30.34R WCI   2
$$

OHZ042-051>053-060>062-070>072-077>081-302300-
  SOUTHWEST OHIO

CITY           SKY/WX    TMP DP  RH WIND       PRES   REMARKS
CINC-COVINGTON PTCLDY    30  14  51 N6        30.43S WCI  24
CINC-LUNKEN    CLEAR     29  14  53 VRB5      30.47S WCI  24
HAMILTON       PTCLDY    29  15  56 N9        30.47S WCI  20
DAYTON         PTCLDY    26  13  57 NW8       30.45R WCI  18
WRIGHT-PAT AFB NOT AVBL
DAYTON GENERAL PTCLDY    26  13  57 NW9       30.43S WCI  17
WILMINGTON     CLEAR     25  12  58 N13       30.42S WCI  14
$$

OHZ036-037-039>041-045>050-054>059-063>069-073>076-082>088-302300-
  CENTRAL AND SOUTHEAST OHIO

CITY           SKY/WX    TMP DP  RH WIND       PRES   REMARKS
COLUMBUS       PTCLDY    22   9  57 NW14      30.43R WCI   9
OSU AIRPORT    PTCLDY    21  10  62 N12       30.43R WCI   9
BOLTON FIELD   PTCLDY    23  12  63 N9        30.43R WCI  13
RICKENBACK AFB NOT AVBL
NEWARK         CLEAR     21   7  54 NW10      30.42R WCI  10
MARION         MOCLDY    21   8  57 N8        30.42F WCI  11
LANCASTER      PTCLDY    24  11  57 N10       30.43R WCI  14
ZANESVILLE     MOCLDY    19   6  57 NW9       30.41R WCI   8
NEW PHILLY     CLOUDY    18   6  59 NW9       30.42S WCI   7
$$



USA.gov is the U.S. government's official web portal to all federal, state and local government web resources and services.